Theta_e
298 288 286 286 288 292 295 295 295 296 296 295 294 293 290 291 292 295 296 298 299 295 295 294 294 295 295 296 298 300 300 302 304 310 319 320 322 324 324 324 325 325 321 321 323 325 326 331 330 330 331 331 330 330 327 328 328 328 327 328 328 330 333 331 329 327 328 330 331 330 328 326 326 328 330 329 328 329 329 331 332 334 332 334 334 334
297 288 288 292 294 295 296 298 297 296 297 295 293 292 290 293 290 296 296 298 299 295 292 294 293 294 295 297 298 299 300 301 302 307 317 319 321 323 323 323 324 323 321 322 322 323 325 329 329 329 330 330 330 327 326 326 327 328 329 329 329 330 331 330 328 328 328 330 329 326 325 324 325 326 325 324 325 326 329 330 330 330 330 331 332 333
288 287 291 295 297 298 298 298 299 297 295 295 292 291 290 291 295 298 299 299 298 297 291 295 293 293 295 297 299 301 302 302 304 307 317 317 318 321 323 323 324 322 320 322 322 322 324 328 328 329 329 330 330 326 325 326 327 328 329 330 330 330 330 329 329 331 330 331 330 325 323 324 322 326 326 324 326 330 329 329 329 329 330 330 330 331
287 289 294 298 298 297 297 298 298 297 296 292 290 288 288 293 292 289 295 297 301 296 292 294 293 293 295 297 298 298 303 303 305 306 314 319 316 321 323 323 322 319 320 321 320 321 325 327 327 327 328 328 327 325 325 326 327 329 329 329 329 329 329 329 329 329 329 331 329 327 328 325 323 322 325 326 327 327 327 328 329 329 329 328 328 330
290 295 298 297 298 297 296 297 297 293 290 295 294 292 291 293 294 293 294 298 303 301 300 294 291 289 294 293 295 297 302 305 304 305 305 313 318 321 325 324 322 320 321 320 319 320 324 325 326 326 328 325 326 325 326 326 327 329 329 329 329 329 328 330 329 328 329 329 325 324 324 324 323 322 321 321 321 325 327 326 325 326 324 324 324 324
293 298 300 297 296 297 295 294 296 296 290 291 296 295 295 296 295 296 297 295 291 289 298 293 283 284 290 293 294 295 297 300 303 302 302 303 314 318 321 321 321 322 323 321 320 321 324 324 325 327 327 327 326 325 325 326 327 328 330 331 330 329 329 328 328 327 326 326 322 319 318 317 317 316 317 317 318 319 322 323 324 327 327 327 324 325
293 299 299 297 295 295 296 294 298 298 290 290 291 298 296 296 295 295 294 293 287 283 294 297 284 280 288 292 293 296 296 295 301 301 302 312 316 318 319 320 321 321 320 321 321 322 320 320 323 325 326 327 326 325 325 326 327 329 331 331 330 329 328 328 327 325 326 325 323 319 318 317 316 316 320 320 321 320 321 322 320 322 325 326 325 325
297 297 297 298 297 295 294 290 297 296 291 288 298 297 296 294 293 294 293 292 289 297 300 298 290 283 282 289 295 296 296 297 299 301 303 315 317 317 318 320 320 319 320 318 317 319 320 320 322 323 324 325 324 325 326 327 329 330 330 329 328 328 327 326 325 325 325 324 323 320 319 319 318 320 320 321 320 322 322 320 321 323 323 324 324 324
297 295 296 295 297 293 290 295 299 298 293 291 297 298 295 295 294 294 291 289 292 290 286 291 295 286 283 289 295 296 294 295 298 301 310 316 317 317 318 319 319 319 319 318 317 318 319 322 324 325 325 326 325 326 327 329 330 329 328 326 326 325 325 324 325 324 324 325 325 325 324 324 323 321 319 320 321 319 320 319 321 323 322 323 324 325
299 298 298 297 295 291 297 297 297 297 292 295 298 298 297 296 295 294 290 289 293 287 282 289 293 284 283 289 291 294 293 294 297 303 313 315 316 317 318 318 317 318 318 318 318 319 320 321 323 324 325 326 327 329 330 330 328 328 326 325 325 324 324 324 324 324 323 324 325 325 324 321 319 318 318 319 318 317 319 321 321 321 321 320 320 321
298 304 303 299 295 297 297 297 298 297 297 298 297 295 294 294 292 293 290 290 288 282 284 293 296 291 282 286 290 290 293 294 298 303 313 314 316 317 318 317 316 317 317 318 318 319 319 322 322 323 323 326 329 329 329 327 326 326 325 325 324 324 324 324 324 323 323 325 326 327 322 320 318 318 318 318 317 319 319 318 319 320 321 321 320 319
298 298 297 298 301 301 299 296 299 299 298 297 293 291 289 288 290 288 290 290 281 277 287 292 293 294 282 284 292 297 301 300 301 303 310 312 313 314 315 317 317 317 317 318 318 318 320 321 321 323 323 325 326 327 326 325 325 325 325 325 324 324 324 324 324 323 324 327 327 326 321 320 320 320 319 317 317 319 318 317 319 320 319 318 318 319
292 292 297 299 303 298 296 294 292 296 297 295 291 290 284 280 282 279 282 279 278 276 287 292 294 292 286 290 296 301 304 305 304 309 310 312 312 313 316 316 316 317 316 316 318 319 319 319 320 321 323 324 325 324 324 324 324 325 325 324 323 323 324 324 324 323 325 325 327 325 321 320 321 319 319 318 318 319 318 319 321 319 318 317 317 316
287 295 295 297 298 300 297 288 287 289 291 291 287 287 284 279 278 275 278 279 280 287 292 291 294 286 294 295 300 303 305 307 309 311 313 313 312 315 316 316 316 315 315 316 318 319 319 319 320 321 323 324 324 324 324 324 323 324 324 323 323 323 324 324 324 324 325 325 327 325 322 321 321 319 319 319 319 319 319 321 320 319 318 317 317 318
280 282 289 293 290 298 296 294 293 292 291 291 294 290 285 284 282 275 278 276 278 279 287 295 288 283 286 291 302 304 307 309 310 312 312 314 316 317 318 318 317 316 315 317 317 318 318 319 320 320 322 323 324 323 322 323 321 320 321 322 323 323 324 324 324 323 325 325 326 325 324 322 322 321 321 320 321 321 319 321 321 320 318 316 317 317
289 285 291 297 296 298 295 298 298 296 292 293 295 294 288 283 288 282 281 283 283 280 282 285 283 292 291 304 305 305 308 308 311 313 314 314 316 316 316 316 316 317 316 317 318 318 318 319 319 320 321 324 324 322 321 322 322 322 322 322 322 323 324 324 323 323 324 324 326 325 323 322 323 322 322 321 321 321 320 319 321 319 317 317 316 317
289 286 295 296 298 296 297 298 298 298 284 291 292 285 288 295 293 284 283 289 283 282 280 283 288 294 298 299 302 303 305 306 308 310 311 311 313 313 313 314 315 317 317 317 318 318 319 320 320 321 323 324 324 323 322 322 323 323 323 323 322 323 322 323 323 324 325 324 324 323 322 323 321 321 321 320 320 320 319 321 321 319 318 317 316 317
286 286 296 296 293 297 298 299 298 298 297 292 288 289 295 298 298 288 281 282 280 278 279 286 282 287 289 284 298 302 303 303 305 308 311 311 312 312 312 313 315 315 316 317 318 319 320 320 320 322 324 325 324 324 323 323 324 324 324 324 323 323 323 323 324 324 324 324 323 323 322 322 321 321 321 320 320 320 320 321 320 318 316 315 317 317
294 284 290 296 297 300 302 298 296 298 300 294 292 299 290 280 282 287 284 279 279 277 279 281 289 288 288 288 294 299 301 301 303 307 309 310 312 312 313 313 314 315 315 315 316 317 318 319 320 321 322 324 325 324 324 324 325 325 324 324 324 324 324 324 325 324 324 324 324 324 323 321 319 321 320 320 320 320 320 319 318 317 316 316 316 316
296 283 287 295 295 299 298 296 284 289 296 298 299 295 299 291 286 282 282 284 283 279 279 279 288 282 294 293 298 298 301 302 304 305 307 309 311 313 313 313 312 312 314 314 315 316 317 318 319 320 321 322 323 323 322 323 324 324 323 323 324 324 324 324 324 323 323 323 324 324 324 321 319 321 320 319 319 318 319 320 319 318 316 316 317 316
288 291 281 290 298 297 288 292 288 291 289 289 290 290 294 293 296 293 292 286 282 279 279 280 280 284 292 300 301 302 303 303 304 305 307 309 312 313 313 312 311 312 313 314 316 316 316 316 316 318 320 322 322 322 321 321 322 323 323 323 324 324 324 324 324 324 323 323 323 323 322 322 320 319 320 319 318 318 318 319 319 318 317 317 316 316
287 288 284 288 289 290 292 298 300 297 296 293 290 288 289 290 287 282 282 292 291 283 280 280 280 288 298 306 304 304 305 305 306 307 307 309 311 312 313 312 312 313 315 317 318 316 316 317 317 318 321 322 320 320 319 319 320 323 323 324 323 324 324 323 323 324 324 322 323 321 322 322 320 319 319 318 317 318 318 318 319 318 317 317 317 316
297 292 287 283 287 289 294 299 301 300 299 297 295 291 293 292 291 285 280 283 288 289 292 287 284 284 299 304 305 306 306 307 307 307 307 308 308 310 312 313 313 313 315 315 317 318 319 318 319 320 321 321 319 319 319 319 320 320 321 323 323 323 323 323 324 325 324 323 322 322 323 322 321 320 319 318 318 319 319 318 318 317 316 317 316 316
304 286 286 288 292 296 298 300 300 300 298 295 295 297 296 292 292 289 288 289 285 287 283 283 281 285 298 305 306 307 306 306 307 308 307 308 309 310 311 313 313 313 313 314 313 315 316 319 319 320 318 319 319 318 319 319 320 320 319 319 319 319 321 321 322 322 321 323 323 323 324 322 322 320 318 318 318 318 318 318 318 317 317 318 316 316
288 289 288 281 283 285 288 292 293 297 296 291 290 294 298 298 297 297 294 289 282 286 288 283 279 285 297 304 305 307 307 306 307 309 308 307 308 310 311 311 312 312 313 315 315 315 315 316 317 318 317 317 318 319 318 318 318 318 317 318 318 318 320 319 319 320 320 320 318 319 321 321 322 320 318 318 318 317 318 318 318 318 316 317 315 315
290 289 288 280 278 275 276 278 281 283 288 291 294 295 297 297 295 292 285 285 281 286 290 284 285 292 299 303 303 304 305 305 306 307 309 309 309 309 310 310 311 312 313 314 314 315 315 316 317 317 316 319 318 318 318 317 317 318 319 320 319 318 318 319 319 319 318 317 318 318 318 319 319 318 318 319 318 316 317 317 317 317 318 319 314 314
291 295 292 287 283 283 284 287 293 293 292 287 291 293 295 297 297 294 286 283 282 285 285 290 291 292 295 298 300 300 302 302 303 305 306 306 308 309 310 311 311 311 312 312 313 313 313 312 313 315 316 316 318 317 316 317 319 319 319 319 319 320 320 320 318 318 317 316 315 316 317 319 319 318 319 319 319 318 318 317 317 317 318 318 317 316
293 287 292 294 293 291 293 293 295 294 292 292 291 292 295 295 295 292 286 284 292 284 282 289 294 291 292 297 299 299 301 302 303 304 305 306 307 308 309 309 311 312 312 313 313 313 313 314 314 314 314 315 315 316 315 317 317 317 318 320 321 321 320 320 319 318 317 318 317 317 315 317 318 318 319 319 319 318 318 318 319 317 316 317 316 316
293 284 292 293 292 293 294 294 295 294 292 293 292 293 293 295 294 291 290 293 292 282 283 290 294 293 295 298 300 301 302 302 303 304 305 307 308 308 309 309 306 304 305 305 305 305 305 309 312 312 314 315 315 314 315 316 316 316 316 317 318 319 320 320 319 318 319 318 317 318 317 319 319 318 317 317 318 317 317 317 318 317 318 319 318 320
296 286 294 294 292 293 292 293 294 293 293 292 293 292 294 294 293 293 293 294 294 292 295 295 293 290 293 295 300 301 303 303 302 303 303 302 304 304 300 297 297 297 296 296 297 297 298 298 298 299 303 308 311 313 316 316 316 316 316 317 318 320 321 320 319 319 318 318 318 319 319 319 319 319 319 318 316 317 317 317 318 317 317 319 318 317
294 285 294 295 289 290 292 292 293 292 292 292 293 294 294 294 294 294 292 293 294 293 294 292 289 288 293 296 297 298 298 297 295 293 294 295 295 296 295 294 294 294 295 295 296 296 296 297 297 298 298 299 300 301 301 303 314 317 317 317 318 319 320 320 319 318 318 318 319 318 319 319 320 320 319 319 318 318 319 318 318 317 317 317 316 315
294 286 294 291 284 283 291 291 291 292 291 290 290 292 292 290 288 291 288 293 291 289 290 290 286 285 292 294 293 294 294 293 291 292 292 292 293 293 292 292 292 293 293 294 295 295 295 296 296 296 297 298 299 299 300 301 302 304 310 317 318 318 320 319 317 317 318 318 318 319 319 318 318 319 319 320 320 318 318 319 318 317 318 317 317 316
294 288 283 284 283 283 289 291 290 289 287 284 285 290 293 292 292 293 296 296 294 292 286 285 285 291 292 293 291 291 291 291 291 291 291 292 292 292 291 292 292 293 293 294 294 295 295 295 295 295 296 297 297 298 300 301 301 300 301 302 308 318 317 318 316 316 317 318 318 318 318 318 318 318 318 318 319 318 318 317 318 317 317 317 317 316
295 291 286 289 283 283 289 289 290 282 275 280 291 294 295 292 291 290 290 293 294 293 290 291 290 293 293 293 291 289 289 290 291 293 294 292 290 290 291 292 292 293 294 294 295 295 295 296 295 295 296 297 298 298 299 301 300 300 301 302 304 305 306 305 304 304 305 307 311 313 315 316 316 316 316 317 317 317 317 317 316 316 315 314 314 314
290 289 285 291 283 282 285 286 281 275 277 288 294 296 297 295 295 293 293 295 294 294 292 289 289 290 292 292 291 290 290 291 291 291 293 295 294 292 291 291 292 293 293 294 294 295 295 295 295 295 295 296 298 298 299 299 300 300 300 301 301 303 303 302 302 302 302 302 303 304 306 307 308 310 312 315 316 317 315 314 313 314 312 311 312 312
287 286 287 284 284 284 283 283 276 277 286 292 295 293 296 296 294 292 290 292 295 293 290 287 288 289 289 289 290 291 290 291 291 292 292 293 294 293 292 292 294 295 294 295 295 295 296 296 295 295 295 297 297 298 299 298 299 300 299 300 300 301 302 301 301 301 301 301 301 301 302 303 304 305 306 306 306 307 312 313 315 314 312 312 311 310
295 290 287 284 287 282 282 282 281 287 287 287 286 288 288 285 288 287 282 286 292 291 289 288 288 288 288 289 290 291 292 292 290 291 295 295 294 294 295 295 296 296 296 296 296 296 297 298 297 297 297 296 297 297 298 299 300 299 299 299 300 301 301 300 300 300 300 301 301 301 300 301 303 304 304 305 305 305 305 306 311 312 313 312 311 311
295 286 287 285 283 284 282 281 282 281 278 282 288 291 293 294 295 293 289 285 293 292 291 289 288 288 289 290 291 292 294 290 286 287 294 296 297 296 296 296 295 295 297 297 297 298 298 298 297 297 296 296 297 298 299 298 299 299 298 299 299 301 300 300 299 301 301 300 300 300 300 300 302 303 303 303 304 304 304 304 304 307 311 311 311 311
295 293 288 284 283 283 282 279 278 276 279 286 288 290 292 294 294 294 288 283 291 292 292 290 289 290 290 291 292 293 291 285 285 288 293 296 297 298 296 296 297 297 297 295 295 295 296 298 299 298 297 295 295 296 298 299 299 299 298 299 299 299 298 298 298 299 300 300 300 300 300 300 301 301 302 302 302 303 303 303 303 304 305 305 306 310
291 285 285 284 281 283 281 279 277 281 281 287 291 292 296 294 297 290 280 280 292 294 293 291 290 290 291 293 294 293 288 284 285 289 294 296 297 297 297 296 295 295 295 294 295 296 296 298 296 295 295 295 295 296 297 297 297 298 297 298 298 297 297 297 298 299 299 300 300 300 300 301 301 301 301 301 301 301 301 302 302 303 304 304 305 305
285 284 285 282 283 283 283 280 282 283 288 291 290 292 292 295 294 282 278 284 293 294 294 293 292 293 295 294 293 288 290 291 292 293 295 296 295 295 295 295 294 294 293 294 294 296 296 296 296 295 296 296 297 298 298 298 297 296 296 297 296 296 297 297 298 298 298 299 299 300 300 300 300 300 301 302 301 301 301 301 301 302 303 303 304 303
283 283 284 283 281 281 282 280 280 282 286 290 292 294 293 290 282 280 290 297 295 293 293 293 292 293 293 292 292 292 292 293 294 294 293 293 292 292 293 294 294 294 294 294 294 294 294 295 295 296 296 296 297 297 297 297 296 295 295 296 295 295 297 298 298 298 297 298 298 298 299 299 299 300 301 301 300 299 299 300 300 301 301 300 300 300
282 281 281 280 281 282 281 278 277 275 285 293 294 290 291 283 284 292 294 295 295 293 292 291 292 292 293 291 292 292 291 291 291 291 291 292 292 292 292 292 292 292 292 292 292 293 294 294 294 294 294 295 296 295 295 295 294 293 294 294 295 296 297 297 297 297 297 297 297 298 298 298 298 298 300 299 299 299 298 298 298 299 299 299 299 300
288 282 282 282 284 278 277 276 277 284 287 292 290 282 287 290 293 293 293 290 293 292 291 291 292 293 293 292 291 291 291 291 291 291 291 291 291 292 292 292 292 293 293 293 293 293 294 293 294 293 293 294 294 294 294 294 293 293 293 292 294 295 295 295 295 295 295 295 296 296 297 297 298 298 298 298 298 298 297 297 297 298 298 298 298 299
288 285 285 282 285 281 280 283 288 290 290 291 292 291 291 292 294 294 293 292 291 291 292 291 291 291 292 292 292 292 291 291 291 292 291 290 291 291 291 292 292 292 292 292 292 293 293 293 292 292 293 293 293 294 293 293 292 292 291 293 294 294 294 294 294 294 294 294 295 294 296 296 296 296 297 297 297 296 296 295 296 296 296 296 296 296
291 291 290 287 284 290 291 291 291 290 289 290 292 292 291 292 293 293 292 290 291 292 293 293 294 293 293 293 291 291 291 290 291 291 291 290 290 292 293 293 293 293 292 292 291 292 292 293 292 292 292 292 293 293 293 293 292 291 292 294 294 294 294 294 293 293 293 293 293 293 294 294 294 294 295 295 295 295 295 295 295 294 295 295 295 295
287 289 288 282 287 285 280 289 289 288 289 289 289 291 291 292 292 292 292 291 291 292 292 293 293 293 293 293 293 292 292 291 290 290 290 291 291 291 292 292 292 292 291 291 292 293 293 293 292 292 291 291 292 292 293 293 293 293 293 294 294 294 294 293 293 292 292 292 292 292 293 292 293 292 293 293 293 294 294 294 294 294 293 293 293 294
282 290 286 287 286 283 284 288 289 290 290 292 290 288 288 290 291 291 291 292 292 292 292 292 293 292 292 290 291 291 291 291 291 290 291 291 291 291 291 291 291 291 291 292 293 293 292 291 291 291 291 291 292 292 293 294 293 294 294 294 294 293 293 293 292 292 292 292 292 292 292 292 289 291 292 292 292 292 293 293 293 293 292 292 292 292
288 289 281 287 284 286 289 290 290 290 289 289 290 289 289 290 290 291 291 291 291 291 291 292 292 291 291 290 290 290 289 290 290 290 291 290 290 290 291 291 291 290 291 291 291 291 291 291 290 291 291 292 292 292 292 292 293 294 293 292 292 292 292 292 292 292 292 292 291 292 292 293 292 291 291 291 292 292 291 291 292 292 292 292 292 291
286 281 286 286 283 283 283 286 289 284 283 287 289 289 290 292 292 292 292 291 291 290 290 290 290 290 290 290 290 290 289 289 290 290 290 290 290 290 291 290 291 291 292 292 293 292 292 292 292 292 292 294 295 293 292 292 292 292 292 292 292 292 291 292 292 292 292 292 292 292 291 291 290 291 291 290 290 290 291 290 291 291 290 291 292 291
284 285 283 281 281 281 288 291 293 290 289 290 291 291 291 292 292 292 292 291 292 292 292 291 290 290 290 290 291 290 289 289 289 290 289 289 290 291 291 290 291 292 292 293 293 293 292 292 294 294 293 294 294 294 294 293 293 292 292 292 292 292 292 293 292 291 291 291 291 290 291 290 290 290 290 290 290 290 289 290 291 291 291 290 291 290
Wind_Speed
3 6 7 8 7 7 7 9 10 11 11 13 12 11 7 7 8 10 14 11 12 10 18 13 12 15 11 11 12 12 2 7 17 14 15 15 13 12 10 10 12 12 14 15 16 17 15 9 8 9 9 8 6 11 12 11 11 8 8 10 9 6 6 5 5 3 4 3 4 3 4 5 5 5 5 6 5 5 4 5 6 6 5 5 4 3
6 6 9 7 8 9 9 9 11 12 10 9 8 7 9 8 9 9 12 12 10 7 9 8 8 12 10 11 13 8 6 3 4 13 14 16 14 13 14 13 13 12 10 13 11 8 10 9 10 9 9 9 10 11 12 14 14 12 8 9 8 3 3 5 6 4 3 2 3 4 4 5 5 8 7 6 6 6 5 6 6 5 4 5 5 4
7 9 7 9 9 9 11 9 7 10 10 10 7 7 7 9 7 13 15 18 6 7 10 12 9 7 10 10 12 6 9 8 10 16 17 18 15 14 14 15 14 13 13 13 11 8 10 11 11 9 8 7 10 12 10 12 14 13 10 8 9 7 8 6 5 2 2 1 1 3 4 7 4 4 7 6 5 5 6 6 6 5 5 5 5 5
4 8 14 11 10 9 8 11 10 7 8 7 5 5 9 10 4 6 15 9 3 4 7 10 10 7 6 7 10 5 7 7 9 14 19 20 18 17 18 18 16 15 15 15 12 10 8 12 12 11 8 8 9 9 9 8 10 11 12 10 9 8 6 5 3 2 2 2 4 4 5 6 8 6 6 7 6 6 6 4 4 4 3 4 3 4
10 12 9 11 11 9 10 10 5 2 2 3 5 6 6 9 7 5 7 11 4 3 7 8 3 3 3 3 4 3 5 5 7 7 11 12 14 14 14 12 16 18 16 13 13 10 11 12 13 11 9 7 7 8 8 7 8 8 11 12 10 8 6 4 3 4 4 5 6 7 7 7 7 6 6 7 5 5 5 5 4 4 5 5 6 5
13 13 7 13 14 13 11 12 8 3 2 2 4 6 8 10 10 9 11 8 8 3 3 7 2 2 1 2 5 7 2 6 6 8 7 6 16 15 15 14 12 14 10 13 13 12 13 14 14 12 12 11 10 9 6 6 7 10 9 12 11 8 4 3 5 5 5 7 8 8 8 7 6 6 6 5 7 6 6 6 3 2 3 5 6 5
10 9 9 10 14 14 15 11 4 4 3 1 5 4 9 13 8 8 11 6 1 4 4 3 4 3 5 4 6 3 10 7 4 7 6 14 14 12 13 13 12 10 11 12 13 13 16 14 11 10 10 11 11 7 5 5 7 7 9 10 12 11 9 8 7 6 6 7 6 7 7 7 7 7 4 3 4 6 4 5 5 5 5 5 6 5
7 12 8 10 8 12 4 4 3 5 5 6 1 7 11 10 8 5 6 8 4 1 3 4 5 2 3 7 7 6 4 0 8 6 9 14 14 13 12 12 9 12 14 15 18 15 13 12 7 9 8 6 7 7 7 7 7 9 10 10 10 9 8 7 8 7 7 8 7 8 7 7 7 6 6 7 6 6 6 6 4 4 4 5 6 6
9 9 9 7 2 1 3 3 2 5 4 3 5 11 13 13 9 6 5 6 3 4 2 2 4 2 2 7 6 4 5 1 6 7 13 14 15 13 12 10 15 16 16 16 15 13 14 12 11 12 9 6 9 9 9 9 8 8 9 9 8 9 9 9 8 8 7 8 8 7 7 6 6 8 7 6 6 6 6 6 3 4 4 6 5 4
4 8 9 9 3 3 3 3 5 6 5 7 8 8 7 8 10 5 4 6 1 1 3 2 2 3 2 6 6 3 4 7 8 11 17 16 16 15 13 15 16 14 16 16 20 15 18 13 15 17 16 14 10 9 7 5 5 6 7 8 9 9 9 9 8 7 7 8 7 6 8 10 8 7 6 7 7 6 4 6 5 5 6 5 6 6
6 5 7 8 6 4 3 5 5 7 10 3 7 7 7 8 5 10 6 1 2 3 6 4 2 3 2 4 5 4 7 9 8 9 12 14 14 12 14 19 13 13 14 14 15 14 13 12 15 14 15 15 14 10 10 8 8 8 8 9 9 10 9 8 8 7 8 7 7 8 10 11 10 9 8 8 6 5 6 6 5 6 6 5 6 6
12 5 1 0 6 6 4 4 6 10 8 9 3 5 5 7 4 2 1 2 1 2 4 7 6 5 5 4 4 2 8 5 12 15 16 15 16 14 14 15 12 12 11 12 12 11 12 12 11 12 13 13 14 13 12 11 10 10 9 9 10 9 10 9 9 8 8 8 8 9 11 11 10 10 8 9 7 6 7 6 7 7 7 7 6 5
9 6 2 5 2 5 3 7 6 8 7 8 5 2 3 1 2 2 1 4 4 3 3 4 4 1 5 2 2 6 9 7 8 17 15 15 15 15 18 17 12 10 11 11 12 13 12 13 13 13 14 14 15 16 16 15 13 11 10 11 12 11 8 8 8 9 8 8 7 9 10 9 8 9 9 8 7 6 7 6 7 7 7 7 6 5
5 4 4 7 4 6 3 3 3 7 1 7 4 5 2 0 1 3 2 1 1 1 2 5 7 5 2 2 5 9 8 7 11 15 14 16 16 17 18 16 14 12 12 12 14 15 15 14 13 12 12 12 13 14 16 15 13 12 11 10 10 9 7 7 7 8 6 7 7 8 8 8 8 9 8 7 7 6 6 7 7 8 7 7 6 5
2 4 8 3 3 6 6 7 4 3 2 3 2 5 7 4 2 4 2 3 5 5 6 3 5 2 4 3 2 7 8 11 9 11 11 15 17 18 16 15 15 12 10 11 12 14 14 13 12 11 11 10 7 4 4 5 4 4 4 5 7 7 7 7 8 5 5 6 7 7 7 8 8 8 8 7 7 6 6 6 7 7 7 7 6 7
7 6 5 10 7 9 8 6 5 5 4 2 3 2 1 5 4 3 1 2 2 0 3 1 2 1 3 1 7 5 11 12 14 13 16 16 15 15 15 14 12 10 10 9 10 9 8 8 7 7 6 6 4 3 3 4 4 5 6 7 6 8 8 8 5 4 5 4 6 7 7 8 8 7 7 7 6 6 6 6 7 8 7 7 7 6
2 3 2 9 13 7 11 6 6 3 1 3 4 3 7 6 6 1 1 1 4 3 2 2 2 2 1 3 2 8 13 11 12 12 11 11 13 13 13 11 10 9 9 9 9 8 7 6 6 4 4 6 6 5 4 4 4 7 7 7 6 5 4 5 5 5 5 5 6 6 7 7 6 7 6 7 6 7 6 6 8 8 8 7 7 6
3 5 6 2 8 9 5 9 5 7 5 3 2 6 3 1 5 5 3 1 1 3 3 3 4 2 3 1 1 11 12 9 13 12 12 12 12 12 10 10 10 10 10 9 7 7 8 7 8 7 6 8 8 7 6 7 6 6 7 8 8 7 6 4 4 4 5 5 6 6 7 6 6 6 6 6 6 6 6 7 8 8 8 7 7 7
0 4 4 0 3 3 7 4 9 6 7 8 7 4 1 1 2 4 2 1 0 1 1 1 4 2 2 2 2 8 10 9 11 11 12 11 10 9 8 10 10 10 11 10 9 9 8 7 8 10 11 11 9 7 7 6 6 6 4 4 5 6 4 3 3 3 3 4 4 4 6 6 5 5 5 5 6 5 7 8 8 8 8 7 7 7
2 1 4 4 3 1 2 1 3 6 4 6 2 0 3 6 3 1 2 2 5 2 1 3 5 1 2 2 3 3 6 8 11 11 10 10 10 10 7 7 9 9 10 10 9 9 10 10 8 9 12 13 11 9 5 4 3 3 2 4 4 4 4 3 2 3 4 4 5 4 4 4 4 4 6 6 6 6 7 8 8 8 8 8 7 6
2 4 2 3 3 4 3 2 3 1 1 3 5 1 1 0 4 6 1 3 3 3 2 4 1 2 6 3 2 7 6 7 12 11 8 8 10 10 8 7 7 8 8 7 6 6 7 6 4 2 2 5 5 5 4 2 2 1 2 2 3 5 5 5 4 3 3 3 4 5 4 4 4 5 5 6 6 6 6 7 7 8 7 7 7 6
1 1 7 2 2 0 3 3 8 11 10 2 5 5 5 3 1 2 4 2 2 3 2 2 2 1 4 2 7 6 3 6 8 13 10 9 10 9 6 4 5 7 7 9 9 10 8 7 5 2 3 4 4 2 1 1 2 1 2 3 3 4 4 4 4 4 3 4 5 5 4 4 4 5 5 6 6 6 6 6 7 7 7 7 7 6
1 2 3 3 5 3 4 8 5 9 8 9 8 8 6 2 6 5 1 3 3 0 2 3 5 1 2 6 4 7 4 5 7 9 10 8 7 6 5 5 3 3 4 4 7 9 8 8 7 6 5 4 3 2 1 0 3 4 3 3 3 4 3 4 4 3 2 2 4 4 4 4 4 5 6 6 5 5 5 5 6 7 7 6 6 6
4 1 1 1 2 2 5 7 5 10 10 9 8 8 13 10 4 4 7 7 4 3 4 2 2 4 2 3 4 7 6 6 6 8 10 8 6 5 3 3 4 3 2 2 3 4 6 5 6 7 6 2 2 2 2 1 4 4 2 7 8 9 6 3 3 7 8 8 3 1 3 3 4 6 6 6 5 5 4 4 5 5 6 5 6 7
3 3 3 1 2 5 6 6 4 7 8 2 3 7 10 9 12 4 4 3 3 4 8 4 2 3 2 5 4 8 7 8 7 8 8 8 6 5 7 5 5 6 4 3 5 8 8 7 5 5 6 5 2 1 3 5 5 2 4 3 6 4 3 4 4 5 6 5 7 12 12 9 9 7 5 7 5 6 6 5 5 4 4 4 5 5
2 2 2 1 2 1 1 3 3 3 1 2 3 8 13 14 9 6 1 2 2 2 4 6 2 1 3 3 7 9 11 10 10 11 11 9 7 8 7 6 8 7 8 8 8 8 6 5 7 9 7 7 7 7 8 7 5 8 9 9 7 6 7 8 7 6 3 3 5 9 12 11 10 8 12 5 4 6 5 5 4 4 3 4 5 4
1 3 3 1 2 2 4 4 2 3 2 6 6 10 10 10 10 6 3 2 3 3 4 1 10 10 5 4 7 6 10 11 11 11 11 11 9 8 8 10 9 9 10 11 10 9 8 11 9 4 6 7 5 7 7 5 6 7 6 6 7 8 8 8 6 6 6 7 3 4 7 7 8 5 4 1 4 1 4 3 3 4 4 4 6 5
2 1 1 1 1 2 5 4 5 5 4 3 7 8 12 12 8 11 5 2 5 3 3 2 11 10 4 3 3 7 9 11 10 9 10 11 10 10 11 10 8 8 10 10 10 8 7 6 6 7 9 8 5 5 6 6 7 7 6 6 7 7 4 2 4 5 2 1 5 7 6 6 3 6 5 1 2 3 1 2 3 1 2 0 3 4
2 1 4 3 4 3 5 6 4 3 2 1 6 6 12 11 13 9 3 6 4 3 6 3 8 8 3 5 4 7 9 10 11 11 10 9 9 9 8 11 13 15 15 15 14 12 12 9 7 5 5 6 6 9 8 6 6 5 6 4 5 6 4 3 2 1 1 2 5 6 6 5 4 4 3 1 1 1 2 1 2 3 3 4 2 3
4 1 3 5 3 2 2 6 6 6 2 3 2 5 9 11 8 6 3 9 9 8 14 13 15 13 8 6 7 9 9 9 9 9 10 10 10 12 15 15 12 13 14 13 12 12 13 12 13 13 13 13 10 8 6 4 5 3 3 3 1 4 5 4 1 4 5 3 2 3 3 2 1 2 1 1 1 1 2 1 1 2 4 4 4 3
5 3 7 3 4 2 3 6 6 7 6 1 2 5 9 8 9 5 4 7 9 12 10 11 16 11 6 5 10 9 11 12 15 16 13 12 14 14 15 13 13 15 13 13 12 13 13 14 15 16 17 15 14 13 12 11 3 3 4 4 4 5 5 3 2 4 7 4 1 2 4 4 0 1 1 1 1 3 3 3 1 2 3 3 3 3
4 2 6 8 6 4 2 3 5 7 7 7 9 8 5 6 6 3 3 0 6 6 7 8 9 5 3 6 12 11 12 15 13 11 11 11 12 13 14 12 13 14 15 13 12 12 13 13 13 13 12 12 13 13 11 11 13 12 8 2 7 7 6 6 5 6 5 6 2 2 2 2 3 1 1 1 2 2 4 6 3 2 2 3 3 2
2 3 3 1 2 3 13 6 5 7 6 4 6 7 6 3 9 8 7 7 5 10 7 4 6 4 3 1 14 11 11 12 12 10 10 11 11 12 12 11 11 12 12 12 12 11 10 10 10 10 10 10 10 10 10 10 13 12 12 12 5 3 6 3 3 5 7 7 7 7 5 3 4 4 2 2 4 6 8 4 2 1 0 1 1 1
1 5 4 1 3 3 6 12 3 4 3 1 4 8 8 4 8 10 4 5 3 2 6 8 9 5 6 8 14 8 10 9 7 7 7 7 9 10 10 9 9 10 11 11 10 9 8 8 8 9 9 9 9 8 9 12 11 10 10 12 15 12 11 11 12 11 10 7 5 3 3 7 9 9 10 11 10 9 4 2 2 1 1 1 1 0
5 5 3 2 3 2 6 7 7 1 1 2 9 9 10 12 12 11 7 8 14 17 16 14 12 11 8 9 11 10 11 11 10 9 10 10 9 9 10 9 9 10 11 10 10 9 9 9 10 12 12 11 9 10 12 13 11 11 13 12 11 9 10 11 12 11 10 9 9 8 7 7 4 3 3 3 5 6 4 3 3 3 2 2 1 1
4 7 3 2 4 2 3 2 2 2 0 5 3 11 12 6 6 9 11 9 6 11 16 12 10 11 12 11 10 10 12 9 11 10 9 9 8 7 10 9 8 9 12 9 10 10 11 10 9 9 8 7 10 11 11 10 10 11 10 10 10 9 10 10 12 11 11 11 10 11 10 10 8 8 7 7 6 4 0 2 5 5 3 3 3 2
4 3 3 3 1 3 2 3 1 1 1 7 5 7 7 3 5 2 4 6 6 7 13 14 12 11 12 12 11 9 9 10 11 8 6 6 5 5 7 7 7 8 7 6 7 6 4 4 7 6 7 8 9 10 9 8 9 9 10 11 11 10 11 11 11 10 10 10 11 10 10 11 8 7 7 7 8 6 5 4 4 3 0 3 3 3
3 1 2 4 1 3 4 3 2 0 1 0 2 5 5 3 3 9 4 4 5 7 10 15 15 13 12 10 9 10 6 12 9 4 3 2 4 7 6 6 5 4 4 4 4 4 4 4 4 5 8 9 9 7 7 8 9 9 10 10 10 10 11 11 11 10 10 9 9 10 10 10 9 9 9 8 7 6 6 4 1 1 0 2 3 4
10 11 8 3 1 2 3 4 1 1 1 1 6 3 7 4 8 9 5 4 2 7 7 13 12 10 10 10 9 6 2 5 4 3 4 3 4 4 6 5 6 4 3 4 6 6 5 5 5 5 6 8 8 6 5 8 10 10 10 9 10 10 10 10 9 9 9 9 8 9 9 8 8 8 9 9 8 8 8 7 7 4 1 0 1 4
8 6 7 6 3 1 2 2 2 2 2 4 6 3 2 6 3 4 4 1 3 5 5 8 10 8 7 6 6 5 8 9 7 6 8 8 7 7 8 7 4 3 3 3 3 3 4 5 9 10 11 10 9 9 9 7 8 9 9 8 8 9 8 8 7 6 6 7 7 7 7 6 6 7 6 6 7 8 8 7 8 8 7 6 6 7
4 2 2 2 2 3 4 2 3 2 1 3 5 8 4 2 1 3 3 1 2 8 7 7 7 4 4 4 2 3 4 7 8 7 7 7 7 5 3 3 5 7 8 9 10 8 8 9 9 10 10 8 9 8 7 8 9 8 7 6 7 7 5 4 4 5 5 5 6 7 7 7 7 8 7 6 6 4 5 6 6 6 6 7 8 6
3 1 1 2 5 2 2 4 2 1 3 5 8 4 4 1 4 4 1 3 7 10 9 10 9 7 7 9 10 11 11 12 11 8 8 7 7 6 7 7 7 7 7 8 10 8 6 8 8 8 8 8 8 7 7 7 8 6 6 5 6 5 4 5 5 5 5 6 6 6 6 7 8 7 6 7 8 9 8 8 7 6 7 7 6 7
1 1 2 2 2 1 2 3 1 1 2 4 5 4 9 5 1 2 5 6 7 9 9 9 9 8 9 12 12 13 13 12 11 10 9 9 9 9 8 8 8 8 8 8 8 7 6 7 8 8 6 6 6 5 5 5 5 4 5 6 6 6 6 6 6 7 7 7 7 7 7 8 8 7 6 7 8 8 7 7 7 8 8 7 7 7
4 2 2 1 1 2 2 2 1 1 4 10 8 5 2 1 1 6 9 10 8 6 6 7 8 8 10 11 11 12 11 11 10 10 9 7 7 7 7 7 7 8 8 7 6 5 6 7 7 7 6 6 6 6 6 6 6 6 6 6 5 6 7 7 7 7 8 8 8 9 9 9 9 9 8 8 8 8 7 8 7 7 6 7 6 7
3 5 2 4 3 2 2 3 4 7 6 6 7 7 6 7 9 9 11 9 8 7 5 9 8 8 7 9 10 10 10 8 8 8 8 6 6 6 5 5 5 7 6 5 5 4 5 7 6 6 6 6 6 6 5 5 6 6 7 6 6 7 7 7 7 7 7 7 7 8 8 8 8 8 8 8 8 8 7 7 7 7 7 7 7 7
6 10 8 8 8 10 9 9 9 8 9 10 10 8 9 10 11 10 11 11 8 8 6 8 8 10 11 10 10 9 7 6 7 7 6 6 5 5 4 4 5 6 4 3 3 3 5 6 6 6 6 6 5 5 5 5 5 6 5 6 7 7 8 8 7 7 7 7 7 7 7 7 7 7 7 7 8 8 7 8 8 7 7 7 7 7
3 3 3 6 5 5 3 4 8 9 7 9 9 9 8 8 7 7 9 9 8 8 9 8 9 9 9 8 9 7 7 6 6 5 5 4 5 5 5 4 4 4 4 3 1 4 7 6 5 4 5 5 4 4 4 5 5 6 6 7 7 8 8 7 7 6 5 6 6 6 6 6 6 6 7 6 7 7 7 7 7 7 7 7 8 9
3 3 7 4 3 4 5 5 5 5 5 7 7 7 7 6 8 7 7 7 8 7 7 7 6 8 6 7 6 6 5 3 4 4 3 4 4 4 3 4 4 5 4 5 7 6 7 6 4 4 4 5 4 4 4 5 5 6 7 6 7 7 8 8 7 7 7 7 6 5 5 5 8 8 6 6 6 6 7 8 8 7 7 6 7 8
1 4 2 2 5 6 8 6 4 5 9 8 7 6 6 6 7 7 8 9 9 9 8 8 7 6 6 7 7 6 6 5 6 3 5 4 4 3 3 2 3 5 5 6 5 7 6 4 4 4 4 4 3 4 5 5 4 5 5 4 4 4 5 5 6 7 7 7 5 5 5 6 6 5 6 6 6 5 4 5 6 7 7 4 4 5
7 6 3 7 8 4 3 6 6 5 4 4 5 5 6 6 7 9 8 8 7 7 7 8 6 6 6 6 5 7 6 5 5 5 5 5 4 3 1 2 4 6 5 5 6 6 5 3 2 4 3 3 3 3 3 2 2 3 3 3 3 4 4 3 4 5 5 5 5 5 6 6 6 5 6 6 6 7 7 6 7 6 5 7 11 13
5 2 3 3 3 2 4 4 2 7 5 5 5 5 7 6 6 8 8 8 7 6 6 7 5 4 4 4 7 8 6 5 4 5 6 3 2 3 4 5 5 3 5 5 6 5 4 3 3 4 2 1 3 3 2 2 3 4 4 4 3 3 3 3 3 4 5 5 5 5 5 5 5 6 6 6 6 7 7 8 7 8 10 9 10 10
Wind_Direction
142 195 214 218 223 225 224 225 237 247 246 254 270 279 260 250 255 247 240 233 228 184 200 190 182 202 217 222 244 262 234 295 168 130 144 146 143 146 142 139 139 131 115 132 140 159 176 158 119 125 128 134 116 108 105 96 96 106 131 129 146 168 157 153 153 158 167 165 169 166 154 160 157 121 97 88 89 101 131 135 129 142 153 157 157 159
180 200 228 224 220 227 239 222 223 245 259 266 270 281 289 280 273 262 263 240 216 163 202 177 170 201 203 214 238 236 243 248 94 117 142 149 144 146 148 143 141 120 124 128 164 163 113 138 136 133 134 133 120 101 107 112 124 147 154 145 140 144 136 179 164 164 169 206 174 154 171 141 127 109 106 99 90 103 102 99 107 119 126 135 151 149
203 216 231 226 229 225 236 238 234 229 245 258 256 270 286 277 283 295 280 254 221 160 170 189 180 201 208 203 229 171 187 171 179 142 156 154 156 153 150 145 140 130 138 155 158 121 148 136 122 118 123 122 109 107 119 140 141 142 144 151 142 155 170 187 168 183 215 240 183 152 157 138 111 110 129 121 124 108 106 112 124 136 143 143 147 142
232 243 224 215 230 234 242 240 233 244 245 244 266 264 259 268 295 293 290 293 190 153 161 180 178 225 209 213 232 207 174 180 189 155 164 157 161 154 155 154 145 143 149 167 136 139 141 126 118 116 123 106 97 115 147 152 136 132 143 149 151 161 178 161 170 151 207 162 126 103 116 119 122 135 117 114 117 113 107 109 112 108 133 141 142 129
216 231 206 221 230 230 236 249 217 115 291 254 219 237 266 285 274 325 295 336 355 33 95 80 40 347 291 190 260 290 223 193 188 141 136 159 155 141 135 130 144 151 164 143 125 147 127 111 108 118 117 96 124 149 162 147 135 138 141 147 157 157 175 170 152 183 173 131 104 102 95 99 99 91 103 114 113 126 132 122 109 131 119 112 100 112
244 239 206 203 224 227 239 249 218 153 249 312 270 229 246 264 281 303 310 356 360 346 347 101 50 301 286 299 244 262 250 183 177 156 159 112 126 128 132 142 151 160 145 123 131 127 111 107 111 122 121 129 144 160 166 137 149 146 149 145 150 143 156 172 186 181 158 130 127 123 120 119 114 118 121 130 143 143 132 150 156 108 95 90 102 99
235 238 225 206 206 222 221 231 203 145 219 280 265 269 258 259 266 278 290 337 201 159 273 83 138 270 326 296 267 263 220 201 177 142 145 106 117 119 129 141 154 132 85 85 78 84 104 98 107 122 123 132 140 153 148 147 162 160 149 147 145 152 171 181 175 172 138 120 128 129 132 134 136 139 152 142 137 133 129 112 115 113 99 110 104 103
208 241 233 222 202 218 205 179 197 143 160 246 252 278 282 277 260 247 265 269 246 212 137 136 126 154 292 290 280 251 279 43 162 152 117 119 118 122 129 142 114 82 80 84 91 90 90 111 121 107 103 116 132 137 155 164 179 165 155 150 150 158 167 172 170 167 148 132 137 137 140 144 142 135 129 120 119 117 123 112 122 116 127 122 126 133
194 221 237 265 249 123 179 178 189 177 207 221 218 232 257 271 260 228 230 259 250 95 303 278 130 81 259 268 278 291 241 194 178 141 112 123 121 122 131 116 88 96 99 102 103 111 120 130 122 122 112 114 143 160 171 177 174 165 157 154 154 162 168 174 169 157 152 139 144 146 142 132 130 124 124 121 118 116 121 122 106 92 94 75 63 68
214 204 191 221 240 215 191 192 196 192 210 233 237 252 259 281 291 275 201 240 342 78 270 263 158 168 271 264 280 294 242 226 187 137 135 130 132 134 130 100 102 103 109 118 130 151 149 150 138 141 147 159 167 164 171 165 173 172 161 161 166 170 173 171 165 158 151 145 141 137 135 132 133 125 119 114 119 125 116 111 117 117 88 70 69 69
268 213 210 187 202 212 190 222 222 226 223 200 207 232 264 260 254 269 215 159 101 169 242 233 246 148 276 270 226 245 218 195 165 122 128 127 124 123 112 107 119 114 118 130 142 148 147 150 148 145 154 158 152 154 164 170 181 181 177 174 176 175 172 166 161 157 162 159 155 147 141 136 136 133 126 120 126 121 118 122 122 109 101 88 78 73
253 258 89 245 179 181 197 250 225 232 218 215 202 208 245 296 304 354 258 114 156 270 241 183 239 169 225 291 315 337 313 156 148 133 139 135 130 117 108 113 120 122 134 132 133 136 149 149 152 155 154 155 157 161 165 176 181 185 185 178 174 176 174 168 166 163 181 168 160 140 137 135 138 136 134 137 147 145 139 138 126 114 102 97 87 77
233 247 174 263 30 359 177 235 267 245 209 204 214 226 165 253 30 330 37 198 207 189 236 182 217 245 208 227 234 1 48 32 109 131 144 134 120 112 112 124 128 137 134 135 144 150 157 160 164 166 166 164 166 169 172 174 180 185 185 182 176 180 175 170 171 176 191 163 139 129 131 133 134 133 138 141 144 150 142 137 126 119 118 112 103 104
277 259 226 192 219 201 228 217 256 270 26 155 173 167 153 89 161 259 266 187 274 268 197 204 211 221 237 349 355 78 62 75 97 120 127 124 124 116 119 126 135 146 150 150 153 161 165 167 170 165 164 173 180 175 172 174 178 184 184 179 172 174 182 173 183 181 170 136 127 125 135 138 135 138 139 142 146 153 148 139 138 134 134 131 137 126
279 248 256 211 216 156 204 216 205 217 179 199 204 149 167 164 160 209 191 190 209 212 247 162 135 244 114 193 294 77 73 77 83 94 103 111 114 114 123 127 132 144 144 148 155 165 166 163 164 165 170 172 171 156 152 161 174 180 176 165 171 173 188 186 191 172 138 133 122 128 138 136 136 139 138 145 148 147 142 140 135 131 127 130 133 121
220 207 224 212 223 168 208 203 239 288 336 257 217 202 231 225 145 201 195 132 214 28 6 360 149 202 175 240 311 78 81 77 91 93 95 102 109 112 116 120 134 135 132 140 148 151 149 146 150 159 161 145 129 146 141 158 161 161 179 182 181 184 188 186 175 148 131 123 121 131 137 138 135 136 135 139 139 138 140 142 124 130 128 127 121 117
277 271 236 212 211 182 193 175 216 165 207 274 39 213 216 193 135 120 355 253 99 53 260 188 44 343 360 113 240 71 66 71 75 78 89 101 107 111 117 126 126 124 127 139 153 154 139 110 97 119 142 127 138 161 179 182 186 181 178 180 174 179 198 191 165 149 142 132 124 139 136 133 132 137 139 143 141 138 141 125 123 128 128 122 117 120
165 244 285 7 214 218 198 184 216 179 162 102 228 237 259 200 127 130 193 354 56 153 249 114 161 185 115 267 318 71 88 70 78 79 78 82 96 102 114 119 129 135 136 129 116 118 127 132 141 153 149 146 154 171 185 194 205 199 187 183 171 175 184 187 160 148 148 139 134 140 137 134 142 142 137 136 136 130 116 110 117 118 120 125 127 127
3 292 303 223 41 9 333 197 207 244 165 156 202 215 102 344 3 315 108 149 185 246 269 314 154 97 84 250 342 104 103 98 85 83 85 85 92 102 105 108 117 125 126 124 124 129 135 151 167 171 155 151 158 178 191 197 204 200 188 180 165 165 175 162 149 138 121 124 125 128 137 136 140 126 124 128 126 115 111 120 125 125 130 125 123 124
110 138 302 323 6 273 18 270 245 240 240 235 221 93 115 113 162 120 188 190 118 241 114 314 57 254 304 254 282 138 120 111 92 80 84 97 107 116 119 126 131 134 134 132 138 147 154 164 182 187 161 157 164 171 177 198 228 219 156 150 140 125 134 141 139 114 125 126 120 117 111 131 134 119 129 131 122 115 118 125 126 126 125 134 129 131
199 126 200 288 343 55 338 330 234 182 268 255 246 153 148 333 206 126 347 136 155 172 182 156 303 293 276 264 9 123 116 115 110 107 104 103 117 129 135 136 121 115 119 123 133 144 152 151 166 178 98 121 128 154 155 182 255 180 116 125 136 146 150 150 136 115 113 99 116 119 118 131 135 123 128 121 117 118 120 123 126 131 136 127 133 137
23 159 176 276 353 110 214 229 14 17 0 313 179 210 167 120 62 108 259 253 140 113 191 122 214 289 285 29 76 54 76 94 100 110 109 112 123 130 121 108 116 124 130 140 144 153 163 157 153 181 101 91 113 122 100 101 357 77 103 148 160 153 137 123 114 121 112 103 129 134 128 131 135 130 121 117 117 118 121 124 127 133 130 133 149 146
172 199 104 176 191 198 277 341 354 46 27 15 33 1 331 110 119 112 115 282 12 28 343 126 117 281 282 335 141 133 122 97 87 89 96 97 98 95 104 108 109 120 125 140 143 140 146 148 151 134 112 118 131 124 103 77 58 87 266 195 175 140 102 50 97 105 91 90 125 142 145 128 126 121 116 109 109 109 117 123 126 135 137 139 154 156
347 46 60 304 23 13 352 0 343 51 41 9 10 21 31 12 320 193 177 179 142 305 50 352 55 250 294 346 61 109 100 88 78 84 92 78 73 77 88 98 58 47 19 15 27 55 48 59 90 90 68 47 140 167 169 213 131 164 134 45 45 59 79 111 39 56 44 13 8 99 119 121 102 97 97 98 99 102 111 118 131 140 144 149 156 165
352 302 94 13 6 349 349 357 5 23 41 69 29 13 37 26 29 5 76 67 84 210 148 123 185 231 296 25 4 85 83 63 58 71 88 94 94 86 76 50 50 34 20 25 49 52 54 67 82 96 142 183 279 209 53 41 38 19 60 56 68 78 93 74 85 81 53 65 43 23 10 11 25 38 87 116 127 141 142 144 146 147 159 143 157 176
83 261 7 103 139 127 256 206 219 334 2 306 34 28 40 35 9 30 61 4 84 293 109 118 103 141 100 58 40 63 86 76 58 55 62 78 79 75 76 78 60 53 63 55 54 54 51 56 46 32 20 27 14 29 63 53 32 16 20 43 33 25 18 24 35 63 76 42 56 68 70 66 68 37 357 336 150 152 148 146 140 147 165 144 175 192
89 255 240 146 146 187 199 171 221 150 63 53 1 37 36 44 37 56 91 93 177 181 97 189 149 138 109 54 69 50 69 78 72 55 49 49 60 62 49 50 66 70 71 59 55 61 63 67 60 35 53 38 48 77 84 70 68 75 71 63 62 44 37 31 38 34 32 78 95 85 100 113 123 116 123 295 331 321 136 123 161 171 190 177 173 182
171 41 296 305 291 164 139 131 117 92 89 85 57 34 44 43 53 58 56 242 272 103 64 316 135 116 131 102 61 69 73 78 79 82 73 58 47 50 60 58 57 73 79 78 75 65 67 77 75 67 71 53 38 75 83 55 53 51 53 50 65 80 78 121 100 88 72 134 114 97 93 105 137 147 188 250 50 358 348 76 37 333 249 328 189 172
301 148 274 219 271 136 159 122 109 88 111 111 67 51 52 45 44 53 358 306 286 138 157 137 104 99 87 65 57 70 81 83 89 88 93 101 93 97 99 75 53 51 52 52 49 49 43 39 46 54 63 106 87 70 75 74 79 78 76 82 117 143 140 109 68 70 86 15 96 112 129 152 162 164 186 154 257 99 306 35 44 67 54 62 51 60
331 87 326 316 179 245 196 143 139 133 98 26 48 81 81 71 53 45 16 3 41 79 117 114 88 66 34 27 52 66 76 78 73 75 70 68 78 79 76 83 85 79 73 67 59 57 60 57 57 54 48 40 38 37 33 82 106 104 108 116 90 69 63 56 30 76 74 30 47 73 86 63 38 92 144 212 320 319 330 326 70 89 82 78 78 75
12 321 338 354 346 261 220 134 118 94 67 64 321 142 95 90 75 60 36 12 49 57 32 66 92 77 13 25 65 58 72 71 64 63 68 74 81 89 85 80 82 80 76 74 69 63 58 50 45 47 46 41 36 35 37 21 10 118 126 121 88 81 107 121 213 117 128 120 50 73 108 129 206 176 177 123 93 326 320 260 193 130 115 114 116 117
49 295 18 30 12 314 29 90 87 89 87 65 28 18 46 84 77 35 58 310 104 92 57 63 62 81 75 49 63 45 61 69 71 70 71 72 76 81 85 84 81 80 80 78 74 69 62 55 51 49 46 40 37 35 27 34 37 34 26 54 129 141 155 161 157 125 100 91 77 329 49 60 9 295 208 170 60 36 301 261 154 149 149 131 117 125
176 116 70 70 57 337 336 333 104 88 62 34 351 324 338 80 109 86 64 72 116 126 84 89 109 106 73 357 84 47 56 67 70 67 77 77 77 81 82 79 76 73 73 72 70 69 66 64 62 58 53 48 37 33 23 26 41 38 35 26 360 92 97 76 73 99 127 153 171 191 170 148 181 210 213 125 189 203 203 208 130 162 76 159 176 120
154 105 118 138 89 285 346 350 12 65 68 24 282 291 264 177 103 88 82 102 116 59 128 124 119 102 96 75 87 83 64 47 42 47 51 78 85 73 67 70 71 74 71 66 63 60 64 65 58 55 55 50 41 34 32 39 38 37 37 40 42 39 53 55 55 55 60 75 81 89 150 170 158 177 172 180 185 181 184 148 172 187 152 114 57 69
104 86 98 99 98 336 332 20 45 37 134 268 307 339 42 84 82 92 83 84 100 98 100 102 104 106 93 94 95 90 83 75 49 41 46 56 71 81 82 67 64 69 67 64 60 54 53 54 52 47 38 31 34 32 33 33 28 29 33 32 41 42 45 48 47 40 39 40 38 46 53 52 33 8 359 113 146 144 147 175 146 139 132 131 155 229
119 105 144 60 117 81 51 81 111 223 212 329 297 19 1 36 44 63 53 24 63 106 114 108 114 112 110 101 97 108 105 108 85 57 49 49 55 78 83 82 80 72 72 64 65 55 53 49 59 61 48 33 33 36 37 34 27 34 29 27 32 35 40 40 39 33 28 25 24 26 23 19 24 33 43 37 40 33 108 178 172 160 168 175 218 225
127 75 93 115 135 129 144 89 118 15 34 6 358 11 11 22 345 347 112 14 42 106 113 118 117 118 117 125 132 132 120 96 75 58 24 56 63 52 74 80 79 82 90 90 93 93 87 78 72 68 64 51 44 40 32 28 35 37 31 29 23 25 33 34 33 28 24 23 17 15 13 11 12 28 32 26 23 30 44 26 354 308 232 183 212 241
69 113 219 104 275 118 128 104 94 130 169 307 359 314 343 350 342 328 101 76 73 91 113 122 131 136 134 139 143 153 139 73 64 33 330 22 73 88 70 71 69 73 87 94 90 92 97 97 80 63 64 55 44 40 32 24 27 35 33 28 28 34 33 29 26 18 22 21 14 8 7 10 13 13 11 18 18 10 3 15 73 68 352 292 275 249
34 45 29 100 122 52 74 122 148 139 142 251 299 318 313 338 19 336 80 74 98 125 134 130 133 141 146 153 163 180 77 77 102 149 179 157 93 72 83 76 86 80 74 89 90 88 78 72 85 75 59 57 53 38 44 31 26 30 37 28 30 31 31 30 21 14 11 8 6 6 7 11 16 13 5 5 359 359 355 354 342 338 8 293 215 246
41 20 33 21 61 2 116 69 99 37 64 303 317 308 337 327 20 39 82 158 102 108 112 115 129 139 153 168 170 135 126 127 148 177 169 172 157 147 141 141 150 131 85 60 62 103 96 72 60 50 46 46 43 34 28 28 35 37 37 38 39 36 29 17 11 5 11 9 10 10 9 9 8 3 2 354 348 344 340 336 340 339 337 333 339 329
13 8 41 328 149 90 84 100 101 140 321 312 297 296 295 305 13 65 163 180 72 82 91 107 113 130 147 164 181 100 86 122 137 139 141 157 146 144 147 137 86 66 54 37 31 31 65 60 58 57 54 51 43 37 34 34 41 35 31 37 38 32 14 2 2 9 11 9 9 8 5 2 2 357 352 349 342 332 331 331 325 322 325 322 325 330
22 352 19 32 33 62 86 76 92 81 248 253 286 275 328 60 83 145 114 128 103 89 88 96 95 81 78 78 95 101 107 107 109 105 94 82 81 78 77 75 80 76 56 46 33 33 56 62 60 60 59 51 44 42 37 47 49 33 23 29 32 8 343 355 358 3 3 6 3 360 359 357 354 355 355 352 353 352 345 337 332 320 316 313 313 313
270 59 77 29 318 27 55 105 99 74 324 310 292 7 6 86 54 69 101 85 94 100 96 87 85 79 77 75 73 84 84 80 83 84 79 73 69 64 60 59 61 66 61 43 26 21 55 68 65 62 56 45 50 44 43 57 56 32 16 30 12 356 358 1 4 7 7 4 357 355 354 351 352 353 354 349 347 348 344 341 339 333 327 314 303 298
345 84 48 53 297 111 66 61 121 349 9 3 57 100 11 72 77 83 89 75 50 60 80 91 80 81 83 88 91 89 86 86 79 82 81 74 73 66 58 57 57 61 60 45 30 27 52 61 64 61 45 39 40 37 36 42 43 37 32 18 359 9 7 6 6 13 13 9 5 5 2 0 357 353 346 344 347 346 345 340 337 334 330 325 316 308
349 93 83 87 338 84 113 138 83 72 68 40 64 84 72 51 64 79 81 73 73 51 54 75 68 60 67 84 86 88 92 88 93 90 92 92 93 90 86 80 83 84 75 53 25 30 67 73 67 57 54 51 45 40 38 41 44 29 25 0 13 11 13 9 11 17 11 7 4 360 357 354 350 345 347 344 340 336 333 328 332 331 330 334 329 324
104 106 97 83 67 74 71 81 94 74 70 68 58 62 64 62 59 65 80 86 70 74 62 76 76 70 62 59 70 61 72 93 95 96 95 94 95 104 103 93 81 87 88 74 35 41 81 71 60 57 59 48 37 36 33 31 43 41 23 18 23 19 14 10 12 13 6 3 357 353 350 346 340 340 339 342 347 345 339 341 340 339 335 337 333 333
62 79 78 100 163 100 84 60 86 104 98 83 79 66 63 64 69 76 79 80 89 81 76 71 80 92 94 85 80 80 64 60 74 86 103 112 112 109 103 106 108 101 99 105 44 45 72 67 55 51 61 60 33 26 17 34 37 45 36 32 27 23 15 12 10 5 0 357 350 347 344 343 340 341 345 350 350 350 351 350 349 348 350 352 350 348
340 60 76 63 79 83 128 117 94 88 98 98 92 86 77 71 67 66 78 80 79 69 68 68 68 74 85 93 102 102 97 96 114 126 97 97 98 92 92 108 122 121 119 85 69 75 66 57 47 44 63 61 20 358 19 43 43 43 43 37 31 24 15 6 357 358 350 346 342 333 342 354 353 351 343 345 350 351 348 345 341 340 341 348 347 343
64 25 106 141 96 84 89 106 118 94 73 77 87 90 101 107 105 92 83 82 77 74 68 57 57 71 76 96 92 80 70 45 36 75 103 84 79 78 104 148 140 128 119 98 90 85 86 68 49 40 54 45 7 14 39 36 38 48 54 47 44 49 35 4 356 348 343 336 336 336 358 354 345 335 336 338 341 334 328 326 326 322 322 323 330 320
48 37 35 85 109 128 165 153 149 123 124 103 110 131 128 119 111 107 102 92 91 90 82 80 62 54 63 65 96 98 87 55 42 54 80 80 69 64 12 34 105 110 107 119 116 119 116 114 101 80 52 36 6 31 54 17 60 77 78 64 57 60 50 19 356 346 335 329 332 332 341 337 332 330 333 327 319 318 313 304 297 294 300 312 314 315
88 81 98 85 121 160 129 143 174 123 122 137 147 132 125 143 139 136 125 125 131 128 126 118 112 95 95 85 85 91 95 94 63 57 64 60 64 20 33 42 28 78 111 111 109 107 112 126 112 97 90 71 19 15 335 304 70 62 58 55 44 55 41 359 337 320 309 313 313 322 328 334 337 334 325 320 317 314 311 310 309 300 301 295 297 305